Location: Lafig�re
(44.4503°N, 4.0357°E)
Time: 05:03:02
(UTC+00:00)

Transit 2A Rocket - Pass Details

Date: 18 June 2021
Orbit: 590 x 913 km, 66.7° (Epoch: 26 July)

Event Time Altitude Azimuth Distance (km) Brightness Sun altitude
Exits shadow 01:21:32 27° 256° (WSW) 1,143 5.6 -18.6°
Maximum altitude 01:23:20 42° 308° (NW) 858 5.3 -18.5°
Drops below altitude 10° 01:27:34 10° 21° (NNE) 1,991 8.4 -18.2°
Sets 01:30:00 0° 28° (NNE) 2,939 9.8 -18.0°
